Content
SEND FEEDBACK

Daily
Averages
Monthly
Summary
United States of America

INARAJAN, GUAM


Home > North America > United States > Guam
Elevation: 280 feet     Latitude: 13 18N     Longitude: 144 44E

WEATHER
 
SELECT A DAY
Number of Records: 342,219;   Date Range: 1/1/95 - 8/28/14
 
SHARE

PRINT THIS DATA

[ ← Previous Day ]
WEATHER ALMANAC - MARCH 14, 2013
[ Next Day → ]
[ °C ]   °F
Weather ElementAverageHighLow
Temperature78.6 °F84.2 °F (12:06 pm)75 °F (2:55 am)
Dewpoint72 °F73.6 °F (1:55 am)67.5 °F (9:55 pm)
Humidity81 %94 % (2:11 am)64 % (2:55 pm)
Barometer29.85 in29.91 in (10:55 pm)29.80 in (3:55 pm)
Wind Speed14.6 mph19.6 mph (1:07 am)
Wind Gust23 mph (10:44 am)
Weather ElementAverage
Visibility9.9 mi
Wind DirectionENE (50.9 °)

Weather ElementTotal
Precipitation---
Cooling Degree Days14.6 (Base 65)
Growing Degree Days29.6 (Base 50)
Averaged from 65 records on March 14, 2013
WEATHER CONDITIONS BREAKOUT
WIND DIRECTION BREAKOUT
WEATHER BY HOUR - MARCH 14, 2013
[ °C ]   °F
Local TimeTemperatureDewpointHumidityBarometerVisibilityWind DirectionWind SpeedGust SpeedPrecipitationEventsConditions
12:19 AM77.0 °F73.4 °F89 %29.86 in10.0 miENE (60°)11.5 mphPartly Cloudy
12:55 AM77.0 °F73.4 °F89 %29.85 in10.0 miNE (50°)13.8 mph0.00 inScattered Clouds
1:05 AM77.0 °F73.4 °F89 %29.85 in10.0 miENE (60°)17.3 mphMostly Cloudy
1:07 AM77.0 °F73.4 °F89 %29.85 in10.0 miENE (60°)19.6 mphMostly Cloudy
1:09 AM77.0 °F71.6 °F83 %29.85 in10.0 miENE (60°)17.3 mphRainLight Rain
1:25 AM75.2 °F71.6 °F89 %29.84 in10.0 miNE (50°)11.5 mphPartly Cloudy
1:55 AM76.5 °F73.6 °F91 %29.83 in10.0 miNE (50°)13.8 mphScattered Clouds
2:00 AM77.0 °F73.4 °F89 %29.83 in10.0 miNE (40°)11.5 mphMostly Cloudy
2:02 AM77.0 °F73.4 °F89 %29.83 in10.0 miNE (40°)13.8 mphMostly Cloudy
2:06 AM77.0 °F73.4 °F89 %29.83 in10.0 miENE (60°)16.1 mphMostly Cloudy
2:08 AM77.0 °F73.4 °F89 %29.83 in10.0 miENE (70°)15.0 mphMostly Cloudy
2:11 AM75.2 °F73.4 °F94 %29.83 in10.0 miENE (60°)16.1 mphMostly Cloudy
2:13 AM75.2 °F73.4 °F94 %29.83 in10.0 miENE (60°)16.1 mphMostly Cloudy
2:15 AM75.2 °F73.4 °F94 %29.83 in10.0 miENE (60°)17.3 mphRainLight Rain
2:17 AM75.2 °F73.4 °F94 %29.83 in9.0 miENE (60°)15.0 mphRainLight Rain
2:20 AM75.2 °F73.4 °F94 %29.83 in8.0 miENE (60°)13.8 mphRainLight Rain
2:31 AM75.2 °F71.6 °F89 %29.83 in10.0 miENE (60°)15.0 mphRainLight Rain
2:33 AM75.2 °F71.6 °F89 %29.83 in10.0 miNE (50°)15.0 mphRainLight Rain
2:34 AM75.2 °F71.6 °F89 %29.83 in10.0 miNE (50°)16.1 mphScattered Clouds
2:55 AM75.0 °F72.0 °F90 %29.83 in10.0 miNE (50°)11.5 mph0.00 inMostly Cloudy
3:55 AM75.0 °F72.0 °F90 %29.82 in10.0 miNE (50°)12.7 mphScattered Clouds
4:18 AM75.2 °F73.4 °F94 %29.81 in9.0 miENE (70°)16.1 mph20.7 mphRainLight Rain
4:32 AM75.2 °F71.6 °F89 %29.81 in10.0 miENE (60°)10.4 mphScattered Clouds
4:55 AM76.1 °F73.2 °F91 %29.82 in10.0 miNE (50°)12.7 mphClear
5:42 AM75.2 °F71.6 °F89 %29.83 in10.0 miENE (70°)12.7 mphMostly Cloudy
5:44 AM75.2 °F71.6 °F89 %29.83 in10.0 miENE (70°)10.4 mphMostly Cloudy
5:55 AM75.7 °F72.0 °F88 %29.83 in10.0 miNE (50°)13.8 mphScattered Clouds
6:55 AM76.5 °F72.9 °F89 %29.85 in10.0 miNE (50°)13.8 mphPartly Cloudy
7:03 AM77.0 °F73.4 °F89 %29.85 in10.0 miNE (50°)15.0 mphMostly Cloudy
7:05 AM77.0 °F73.4 °F89 %29.86 in10.0 miNE (50°)16.1 mphScattered Clouds
7:55 AM77.9 °F73.4 °F86 %29.87 in10.0 miENE (60°)15.0 mphScattered Clouds
8:45 AM78.8 °F73.4 °F83 %29.88 in10.0 miNE (50°)13.8 mphMostly Cloudy
8:46 AM78.8 °F73.4 °F83 %29.88 in10.0 miNE (50°)15.0 mphScattered Clouds
8:51 AM78.8 °F73.4 °F83 %29.88 in10.0 miNE (50°)18.4 mphMostly Cloudy
8:53 AM78.8 °F73.4 °F83 %29.88 in10.0 miNE (50°)15.0 mphMostly Cloudy
8:55 AM79.2 °F73.2 °F82 %29.88 in10.0 miNE (50°)17.3 mphMostly Cloudy
8:56 AM78.8 °F73.4 °F83 %29.88 in10.0 miNE (50°)17.3 mphLight Drizzle
9:02 AM78.8 °F71.6 °F78 %29.88 in10.0 miNE (50°)16.1 mphMostly Cloudy
9:55 AM81.7 °F71.8 °F72 %29.89 in10.0 miNE (40°)17.3 mphScattered Clouds
10:44 AM82.4 °F71.6 °F70 %29.88 in10.0 miNNE (30°)17.3 mph23.0 mphMostly Cloudy
10:55 AM82.9 °F72.9 °F71 %29.88 in10.0 miNE (40°)17.3 mphMostly Cloudy
11:20 AM82.4 °F71.6 °F70 %29.88 in10.0 miNE (50°)15.0 mphScattered Clouds
11:23 AM82.4 °F71.6 °F70 %29.88 in10.0 miNE (50°)16.1 mphMostly Cloudy
11:26 AM82.4 °F71.6 °F70 %29.88 in10.0 miNE (50°)15.0 mphScattered Clouds
11:55 AM83.5 °F71.6 °F67 %29.86 in10.0 miENE (60°)16.1 mphScattered Clouds
12:06 PM84.2 °F71.6 °F66 %29.85 in10.0 miNE (50°)15.0 mphMostly Cloudy
12:13 PM84.2 °F71.6 °F66 %29.85 in10.0 miNE (50°)15.0 mphScattered Clouds
12:24 PM84.2 °F71.6 °F66 %29.84 in10.0 miNE (40°)13.8 mphMostly Cloudy
12:32 PM84.2 °F71.6 °F66 %29.84 in10.0 miENE (60°)13.8 mphScattered Clouds
12:40 PM84.2 °F71.6 °F66 %29.84 in10.0 miNE (40°)13.8 mphMostly Cloudy
12:55 PM82.2 °F72.0 °F71 %29.84 in10.0 miNE (50°)15.0 mphMostly Cloudy
1:19 PM82.4 °F71.6 °F70 %29.83 in10.0 miNNE (30°)16.1 mphMostly Cloudy
1:21 PM82.4 °F71.6 °F70 %29.83 in10.0 miNNE (30°)17.3 mphMostly Cloudy
1:51 PM82.4 °F71.6 °F70 %29.82 in10.0 miENE (60°)12.7 mph21.9 mphScattered Clouds
1:55 PM82.9 °F71.2 °F68 %29.82 in10.0 miNE (50°)15.0 mph21.9 mphScattered Clouds
2:55 PM82.9 °F69.8 °F64 %29.81 in10.0 miNE (40°)15.0 mphPartly Cloudy
3:55 PM82.4 °F71.2 °F69 %29.80 in10.0 miNE (40°)16.1 mphPartly Cloudy
4:55 PM81.7 °F71.4 °F71 %29.81 in10.0 miNNE (30°)13.8 mphPartly Cloudy
5:55 PM79.5 °F70.2 °F73 %29.83 in10.0 miNE (40°)12.7 mphPartly Cloudy
6:55 PM78.1 °F69.6 °F75 %29.85 in10.0 miNE (40°)13.8 mphPartly Cloudy
7:55 PM77.5 °F68.0 °F72 %29.87 in10.0 miNE (40°)13.8 mphClear
8:55 PM77.4 °F68.5 °F74 %29.88 in10.0 miNE (40°)10.4 mphClear
9:55 PM76.5 °F67.5 °F74 %29.90 in10.0 miNE (50°)11.5 mphClear
10:55 PM75.2 °F68.9 °F81 %29.91 in10.0 miENE (60°)9.2 mphClear
11:55 PM75.0 °F68.7 °F81 %29.91 in10.0 miENE (60°)9.2 mphClear
Hourly data recorded from PGUA, located miles away from Inarajan, Guam







STORIES FROM OUR PARTNERS